Flag for Saudi Arabia Weather past 2 weeks in Qatif, Saudi Arabia

Now
54 °F

Clear.


Feels Like: 49 °F
Forecast: 54 / 73 °F
Wind: 14 mph from Northwest

Location: King Fahd International Airport

Current Time: Feb 2, 2015 at 3:54:21 AM

Latest Report: Feb 2, 2015 at 3:00 AM


Visibility: 10 mi

Pressure: 30.07 "Hg

Humidity: 51%

Dew point: 36 °F

Location of QatifLocation

Historic Weather in Qatif — Graph

°F

Qatif temperature yesterday

Maximum temperature yesterday: 73 °F (at 12:00 PM)
Minimum temperature yesterday: 57 °F (at 10:00 PM)
Average temperature yesterday: 65 °F

Past Weeks' High & Low Weather Summary

 TemperatureHumidityPressure
High88 °F (Jan 30, 2:00 PM)100% (Jan 26, 5:00 AM)30.27 "Hg (Jan 26, 5:00 AM)
Low43 °F (Jan 21, 5:00 AM)14% (Jan 27, 2:00 PM)29.92 "Hg (Jan 28, 3:00 PM)
Average60 °F56%30.10 "Hg
* Reported Jan 18 3:00 AM — Feb 2 3:00 AM, Qatif, Weather by CustomWeather, © 2014

Note: Actual official high and low records may vary slightly from our data, if they occured in-between our weather recording intervals... More about our weather records

Advertising

Qatif weather history for previous 24 hours

 ConditionsComfort  
Time TempWeatherWind HumidityBarometerVisibility
3:00 AM
Feb 2
54 °FClear.14 mph51%30.07 "Hg10 mi
2:00 AM54 °FClear.12 mph58%30.07 "Hg10 mi
1:00 AM55 °FClear.13 mph59%30.07 "Hg10 mi
12:00 AM55 °FClear.12 mph59%30.07 "Hg10 mi
11:00 PM
Feb 1
57 °FClear.10 mph55%30.07 "Hg10 mi
10:00 PM57 °FClear.8 mph59%30.09 "Hg10 mi
9:00 PM59 °FClear.7 mph55%30.09 "Hg10 mi
8:00 PM61 °FClear.8 mph48%30.09 "Hg10 mi
7:00 PM64 °FClear.6 mph46%30.09 "Hg10 mi
6:00 PM66 °FClear.10 mph40%30.07 "Hg10 mi
5:00 PM70 °FSunny.15 mph38%30.07 "Hg10 mi
4:00 PM72 °FSunny.17 mph36%30.04 "Hg10 mi
3:00 PM73 °FSunny.18 mph33%30.04 "Hg10 mi
2:00 PM73 °FSunny.18 mph29%30.07 "Hg5 mi
1:00 PM73 °FSunny.18 mph29%30.07 "Hg4 mi
12:00 PM73 °FSunny.21 mph38%30.09 "Hg5 mi
11:00 AM72 °FSunny.18 mph44%30.12 "Hg5 mi
10:00 AM70 °FSunny.22 mph46%30.12 "Hg5 mi
9:00 AM64 °FSunny.12 mph56%30.12 "Hg10 mi
8:00 AM59 °FSunny.10 mph63%30.12 "Hg10 mi
7:00 AM59 °FSunny.14 mph68%30.09 "Hg10 mi
6:00 AM61 °FClear.14 mph63%30.07 "Hg10 mi
5:00 AM61 °FClear.13 mph68%30.07 "Hg10 mi
4:00 AM63 °FClear.14 mph68%30.04 "Hg5 mi
3:00 AM64 °FPassing clouds.14 mph73%30.04 "Hg4 mi
Weather by CustomWeather, © 2014

See weather overviewHow to use our weather pages